San Jose, CA

10:03 AM PDT on September 20, 2017 (GMT -0700)
San Jose International

Weather History for KSJC - March, 2013

Change the Weather History Date:

Saturday, March 16, 2013

  Actual Average Record
Temperature  
Mean Temperature 60 °F 56 °F  
Max Temperature 70 °F 66 °F 85 °F (2004)
Min Temperature 50 °F 47 °F 30 °F (1895)
Degree Days  
Heating Degree Days 5 9  
Month to date heating degree days 145 150  
Since 1 July heating degree days 1751 1815  
Cooling Degree Days 0 0  
Month to date cooling degree days 0 0  
Year to date cooling degree days 0 0  
Growing Degree Days 10 (Base 50)    
Moisture  
Dew Point 48 °F    
Average Humidity 67    
Maximum Humidity 93    
Minimum Humidity 40    
Precipitation  
Precipitation T in 0.09 in 1.21 in (1954)
Month to date precipitation 0.66 1.53  
Year to date precipitation 1.72 7.71  
Since 1 July precipitation 8.91  
Sea Level Pressure  
Sea Level Pressure 30.09 in    
Wind  
Wind Speed 5 mph (NW)    
Max Wind Speed 17 mph    
Max Gust Speed 21 mph    
Visibility 9 miles    
Events      
T = Trace of Precipitation, MM = Missing Value Source: NWS Daily Summary

Daily Weather History Graph

Daily Weather History Graph

Search for Another Location

Airport or City:

Trip Planner

Search our weather history database for the weather conditions in past years. The results will help you decide how hot, cold, wet, or windy it might be!

Date:

Astronomy

Mar. 16, 2013 Rise Set
Actual Time 7:16 AM PDT 7:16 PM PDT
Civil Twilight 6:50 AM PDT 7:42 PM PDT
Nautical Twilight 6:20 AM PDT 8:12 PM PDT
Astronomical Twilight 5:49 AM PDT 8:43 PM PDT
Moon 9:56 AM PDT (3/16) No Moon Set
Length of Visible Light 12h 51m
Length of Day
11h 59m
Waxing Crescent, 24% of the Moon is Illuminated
Mar 16
Waxing Crescent
Mar 19
First Quarter
Mar 27
Full
Apr 2
Last Quarter
Apr 10
New

Hourly Weather History & Observations

Time (PDT) Temp. Dew Point Humidity Pressure Visibility Wind Dir Wind Speed Gust Speed Precip Events Conditions
12:16 AM 51.8 °F 50.0 °F 94% 30.10 in 10.0 mi NNW 8.1 mph - N/A   Partly Cloudy
12:41 AM 51.8 °F 48.2 °F 88% 30.10 in 10.0 mi NNW 10.4 mph - N/A   Mostly Cloudy
12:53 AM 51.1 °F 48.9 °F 92% 30.10 in 10.0 mi NW 5.8 mph - N/A   Mostly Cloudy
1:53 AM 50.0 °F 48.9 °F 96% 30.08 in 10.0 mi Calm Calm - N/A   Overcast
2:53 AM 50.0 °F 48.9 °F 96% 30.07 in 10.0 mi Calm Calm - N/A   Overcast
3:53 AM 50.0 °F 48.9 °F 96% 30.08 in 10.0 mi Calm Calm - N/A   Overcast
4:53 AM 50.0 °F 48.9 °F 96% 30.07 in 9.0 mi Calm Calm - N/A   Overcast
5:53 AM 50.0 °F 48.9 °F 96% 30.06 in 8.0 mi Calm Calm - N/A   Overcast
6:53 AM 50.0 °F 48.0 °F 93% 30.07 in 7.0 mi Variable 3.5 mph - N/A   Overcast
7:53 AM 51.1 °F 48.9 °F 92% 30.08 in 5.0 mi Calm Calm - N/A   Overcast
8:53 AM 51.1 °F 48.9 °F 92% 30.10 in 5.0 mi Calm Calm - N/A   Overcast
9:53 AM 53.1 °F 48.9 °F 86% 30.12 in 6.0 mi Calm Calm - N/A   Overcast
10:35 AM 53.6 °F 48.2 °F 82% 30.11 in 7.0 mi Calm Calm - N/A   Scattered Clouds
10:53 AM 55.0 °F 48.9 °F 80% 30.10 in 9.0 mi Calm Calm - N/A   Clear
11:53 AM 61.0 °F 50.0 °F 67% 30.12 in 10.0 mi NW 9.2 mph - N/A   Clear
12:53 PM 62.1 °F 50.0 °F 65% 30.11 in 10.0 mi WNW 9.2 mph - N/A   Clear
1:53 PM 64.9 °F 46.0 °F 50% 30.07 in 10.0 mi WNW 6.9 mph - N/A   Clear
2:53 PM 69.1 °F 45.0 °F 42% 30.05 in 10.0 mi NW 11.5 mph - N/A   Clear
3:53 PM 66.9 °F 48.9 °F 52% 30.06 in 10.0 mi NW 13.8 mph - N/A   Clear
4:53 PM 64.9 °F 44.1 °F 47% 30.06 in 10.0 mi NW 11.5 mph - N/A   Clear
5:53 PM 63.0 °F 45.0 °F 52% 30.06 in 10.0 mi WNW 13.8 mph - N/A   Clear
6:53 PM 59.0 °F 46.0 °F 62% 30.06 in 10.0 mi NW 9.2 mph - N/A   Clear
7:53 PM 57.0 °F 45.0 °F 64% 30.07 in 10.0 mi NW 10.4 mph - N/A   Clear
8:53 PM 55.9 °F 44.1 °F 64% 30.09 in 10.0 mi NNW 9.2 mph - N/A   Clear
9:53 PM 54.0 °F 46.0 °F 75% 30.11 in 10.0 mi NNW 4.6 mph - N/A   Clear
10:53 PM 54.0 °F 46.0 °F 75% 30.12 in 10.0 mi North 4.6 mph - N/A   Clear
11:53 PM 53.1 °F 46.0 °F 77% 30.14 in 10.0 mi NNW 5.8 mph - N/A   Clear